Epoch 2023 Apr. 6.0 TT = JDT 2460040.5 T 2023 Mar. 29.78176 TT Rudenko q 3.6239921 (2000.0) P Q z -0.0004307 Peri. 181.49456 -0.99908022 +0.00770139 +/-0.0000042 Node 2.63683 -0.02314207 +0.73133361 e 1.0015608 Incl. 113.51999 -0.03609932 -0.68197642 H 10.0 From 373 observations 2019 Oct. 11-2021 Jan. 15, mean residual 0".4.
m1 = 0.0 + 5 log d + 15.0 log r